Jamestown, NY

5:17 PM EDT on October 23, 2017 (GMT -0400)
Chautauqua County-Jamestown

Weather History for KJHW - August, 2012

Change the Weather History Date:

Saturday, August 11, 2012

  Actual Average Record
Temperature  
Mean Temperature 60 °F -  
Max Temperature 62 °F 79 °F 88 °F (1988)
Min Temperature 57 °F 54 °F 45 °F (1987)
Degree Days  
Heating Degree Days 6    
Growing Degree Days 10 (Base 50)    
Moisture  
Dew Point 56 °F    
Average Humidity 87    
Maximum Humidity 100    
Minimum Humidity 72    
Precipitation  
Precipitation 0.08 in - - ()
Sea Level Pressure  
Sea Level Pressure 29.85 in    
Wind  
Wind Speed 8 mph (South)    
Max Wind Speed 16 mph    
Max Gust Speed 24 mph    
Visibility 8 miles    
Events      
Averages and records for this station are not official NWS values.
T = Trace of Precipitation, MM = Missing Value Source: NWS Daily Summary

Daily Weather History Graph

Daily Weather History Graph

Search for Another Location

Airport or City:

Trip Planner

Search our weather history database for the weather conditions in past years. The results will help you decide how hot, cold, wet, or windy it might be!

Date:

Astronomy

Aug. 11, 2012 Rise Set
Actual Time 6:20 AM EDT 8:22 PM EDT
Civil Twilight 5:50 AM EDT 8:53 PM EDT
Nautical Twilight 5:12 AM EDT 9:30 PM EDT
Astronomical Twilight 4:32 AM EDT 10:10 PM EDT
Moon 12:46 AM EDT (8/11) 3:57 PM EDT (8/11)
Length of Visible Light 15h 02m
Length of Day
14h 01m
Waning Crescent, 33% of the Moon is Illuminated
Aug 11
Waning Crescent
Aug 17
New
Aug 24
First Quarter
Aug 31
Full
Sep 8
Last Quarter

Hourly Weather History & Observations

Time (EDT) Temp. Dew Point Humidity Pressure Visibility Wind Dir Wind Speed Gust Speed Precip Events Conditions
12:15 AM 60.8 °F 59.0 °F 94% 29.79 in 6.0 mi South 4.6 mph - N/A   Mostly Cloudy
12:35 AM 60.8 °F 59.0 °F 94% 29.79 in 5.0 mi South 4.6 mph - N/A   Overcast
12:55 AM 60.8 °F 60.8 °F 100% 29.78 in 4.0 mi South 5.8 mph - N/A   Overcast
1:15 AM 62.6 °F 60.8 °F 94% 29.78 in 4.0 mi South 5.8 mph - 0.03 in   Overcast
1:35 AM 60.8 °F 60.8 °F 100% 29.78 in 9.0 mi South 5.8 mph - 0.08 in   Mostly Cloudy
1:55 AM 60.8 °F 59.0 °F 94% 29.78 in 1.5 mi SSE 5.8 mph - 0.08 in   Mostly Cloudy
2:15 AM 60.8 °F 59.0 °F 94% 29.77 in 0.2 mi South 6.9 mph - N/A   Overcast
2:35 AM 60.8 °F 60.8 °F 100% 29.77 in 0.8 mi South 8.1 mph - N/A   Overcast
2:55 AM 60.8 °F 60.8 °F 100% 29.76 in 3.0 mi South 6.9 mph - N/A   Overcast
3:15 AM 62.6 °F 60.8 °F 94% 29.76 in 5.0 mi South 6.9 mph - N/A   Overcast
3:35 AM 62.6 °F 60.8 °F 94% 29.77 in 4.0 mi South 5.8 mph - N/A   Overcast
3:55 AM 60.8 °F 60.8 °F 100% 29.77 in 1.0 mi South 6.9 mph - N/A   Overcast
4:15 AM 60.8 °F 60.8 °F 100% 29.77 in 0.2 mi SSE 6.9 mph - N/A   Overcast
4:35 AM 60.8 °F 59.0 °F 94% 29.78 in 0.5 mi South 5.8 mph - N/A   Overcast
4:55 AM 60.8 °F 57.2 °F 88% 29.78 in 5.0 mi South 6.9 mph - N/A   Overcast
5:15 AM 60.8 °F 57.2 °F 88% 29.78 in 5.0 mi South 6.9 mph - N/A   Mostly Cloudy
5:35 AM 59.0 °F 57.2 °F 94% 29.79 in 7.0 mi South 10.4 mph - N/A   Mostly Cloudy
5:55 AM 59.0 °F 55.4 °F 88% 29.79 in 10.0 mi South 11.5 mph 16.1 mph N/A   Mostly Cloudy
6:15 AM 59.0 °F 55.4 °F 88% 29.79 in 10.0 mi South 11.5 mph 16.1 mph N/A   Mostly Cloudy
6:35 AM 57.2 °F 55.4 °F 94% 29.80 in 10.0 mi South 9.2 mph - N/A   Partly Cloudy
6:55 AM 57.2 °F 53.6 °F 88% 29.80 in 10.0 mi South 13.8 mph 19.6 mph N/A   Scattered Clouds
7:15 AM 57.2 °F 53.6 °F 88% 29.80 in 10.0 mi South 13.8 mph 19.6 mph N/A   Mostly Cloudy
7:35 AM 57.2 °F 51.8 °F 82% 29.81 in 10.0 mi South 16.1 mph 21.9 mph N/A   Scattered Clouds
7:55 AM 57.2 °F 51.8 °F 82% 29.81 in 10.0 mi South 16.1 mph 24.2 mph N/A   Mostly Cloudy
8:15 AM 57.2 °F 51.8 °F 82% 29.82 in 10.0 mi South 13.8 mph 18.4 mph N/A   Mostly Cloudy
8:35 AM 57.2 °F 51.8 °F 82% 29.82 in 10.0 mi South 10.4 mph 18.4 mph N/A   Overcast
8:55 AM 57.2 °F 51.8 °F 82% 29.82 in 10.0 mi South 11.5 mph 17.3 mph N/A   Overcast
9:15 AM 57.2 °F 51.8 °F 82% 29.82 in 10.0 mi South 10.4 mph 18.4 mph N/A   Overcast
9:35 AM 57.2 °F 51.8 °F 82% 29.82 in 10.0 mi South 8.1 mph 17.3 mph N/A   Overcast
9:55 AM 57.2 °F 53.6 °F 88% 29.83 in 10.0 mi South 10.4 mph 19.6 mph N/A   Overcast
10:15 AM 57.2 °F 53.6 °F 88% 29.84 in 10.0 mi South 10.4 mph 17.3 mph N/A   Overcast
10:35 AM 57.2 °F 53.6 °F 88% 29.84 in 10.0 mi South 9.2 mph 19.6 mph N/A   Overcast
10:55 AM 57.2 °F 53.6 °F 88% 29.84 in 10.0 mi SSW 9.2 mph - N/A   Overcast
11:15 AM 59.0 °F 53.6 °F 82% 29.85 in 10.0 mi South 13.8 mph 17.3 mph N/A   Overcast
11:35 AM 59.0 °F 55.4 °F 88% 29.85 in 10.0 mi South 9.2 mph - N/A   Overcast
11:55 AM 59.0 °F 53.6 °F 82% 29.85 in 10.0 mi South 10.4 mph - N/A   Overcast
12:15 PM 59.0 °F 53.6 °F 82% 29.86 in 10.0 mi South 9.2 mph - N/A   Overcast
12:35 PM 59.0 °F 53.6 °F 82% 29.86 in 10.0 mi South 8.1 mph 18.4 mph N/A   Overcast
12:55 PM 59.0 °F 53.6 °F 82% 29.86 in 10.0 mi SSW 12.7 mph 18.4 mph N/A   Overcast
1:35 PM 59.0 °F 53.6 °F 82% 29.87 in 10.0 mi South 11.5 mph 16.1 mph N/A   Overcast
1:55 PM 60.8 °F 53.6 °F 77% 29.87 in 10.0 mi South 13.8 mph - N/A   Overcast
2:15 PM 60.8 °F 53.6 °F 77% 29.87 in 10.0 mi South 10.4 mph 19.6 mph N/A   Overcast
2:35 PM 60.8 °F 53.6 °F 77% 29.87 in 10.0 mi SSW 11.5 mph 20.7 mph N/A   Overcast
2:55 PM 60.8 °F 53.6 °F 77% 29.88 in 10.0 mi South 9.2 mph 20.7 mph N/A   Overcast
3:15 PM 62.6 °F 55.4 °F 77% 29.87 in 10.0 mi SSW 11.5 mph 19.6 mph N/A   Overcast
3:35 PM 62.6 °F 53.6 °F 72% 29.87 in 10.0 mi SSW 13.8 mph 21.9 mph N/A   Overcast
3:55 PM 62.6 °F 55.4 °F 77% 29.87 in 10.0 mi SSW 9.2 mph 20.7 mph N/A   Overcast
4:15 PM 62.6 °F 55.4 °F 77% 29.87 in 10.0 mi South 10.4 mph 19.6 mph N/A   Overcast
4:35 PM 60.8 °F 55.4 °F 82% 29.88 in 10.0 mi SSW 12.7 mph - N/A   Overcast
4:55 PM 60.8 °F 55.4 °F 82% 29.89 in 10.0 mi SSW 11.5 mph 19.6 mph N/A   Overcast
5:15 PM 60.8 °F 55.4 °F 82% 29.89 in 10.0 mi South 11.5 mph 18.4 mph N/A   Overcast
5:35 PM 60.8 °F 55.4 °F 82% 29.90 in 10.0 mi SSW 13.8 mph 19.6 mph N/A   Overcast
5:55 PM 60.8 °F 55.4 °F 82% 29.89 in 10.0 mi South 10.4 mph - N/A   Overcast
6:15 PM 60.8 °F 55.4 °F 82% 29.90 in 10.0 mi SSW 11.5 mph 20.7 mph N/A   Overcast
6:35 PM 60.8 °F 55.4 °F 82% 29.90 in 10.0 mi SSW 8.1 mph - N/A   Overcast
6:55 PM 60.8 °F 55.4 °F 82% 29.91 in 10.0 mi South 6.9 mph - N/A   Overcast
7:15 PM 60.8 °F 55.4 °F 82% 29.91 in 5.0 mi South 9.2 mph - N/A   Overcast
7:35 PM 60.8 °F 55.4 °F 82% 29.91 in 10.0 mi South 9.2 mph - N/A   Overcast
7:55 PM 60.8 °F 55.4 °F 82% 29.91 in 5.0 mi South 9.2 mph - N/A   Overcast
8:15 PM 59.0 °F 57.2 °F 94% 29.92 in 7.0 mi SSW 8.1 mph - N/A   Overcast
8:35 PM 59.0 °F 57.2 °F 94% 29.92 in 7.0 mi South 11.5 mph 16.1 mph N/A   Overcast
8:55 PM 59.0 °F 57.2 °F 94% 29.93 in 8.0 mi SSW 6.9 mph - N/A   Overcast
9:15 PM 59.0 °F 57.2 °F 94% 29.93 in 10.0 mi SSW 6.9 mph - N/A   Overcast
9:35 PM 60.8 °F 57.2 °F 88% 29.94 in 10.0 mi SSW 8.1 mph - N/A   Overcast
9:55 PM 60.8 °F 57.2 °F 88% 29.94 in 10.0 mi SSW 8.1 mph - N/A   Overcast
10:15 PM 60.8 °F 57.2 °F 88% 29.94 in 10.0 mi SSW 10.4 mph - N/A   Overcast
10:35 PM 60.8 °F 57.2 °F 88% 29.94 in 10.0 mi SSW 10.4 mph - N/A   Overcast
10:55 PM 60.8 °F 57.2 °F 88% 29.94 in 10.0 mi SSW 10.4 mph - N/A   Overcast
11:15 PM 60.8 °F 57.2 °F 88% 29.93 in 10.0 mi SSW 9.2 mph - N/A   Overcast
11:35 PM 60.8 °F 57.2 °F 88% 29.94 in 10.0 mi SSW 8.1 mph - N/A   Overcast
11:55 PM 60.8 °F 57.2 °F 88% 29.94 in 10.0 mi SSW 11.5 mph - N/A   Overcast